Погода в Покровском

Россия / Свердловская область     57°21′24″N   61°41′33″E
темп.,
°C
ветер,
м/с
пор.,
м/с
влажн.,
%
обл.,
%
осадки,
мм/ч
давл.,
гПа
погр.,
м
22 января, пт
пт2223:00−22зсз269786 0.1 1013125
02:00−22зсз239898 0.0 101461
05:00−22ссз229894 0.1 101543
08:00−25с249888 0.0 1016119
11:00−25с249693 0.1 1017230
14:00−24с249495 0.0 1019264
17:00−28ссз239771 0.0 102234
20:00−27ссз279739 0.0 1025257
23 января, сб
сб2323:00−29ссз379866 0.0 1029150
02:00−31ссз379880 0.0 1031170
05:00−35ссз259848 0.0 103384
08:00−37ссз229756 0.0 103627
11:00−35ссз129566 0.0 103788
14:00−30юв008992 0.0 1036208
17:00−31юв229596 0.0 103634
20:00−31ююв2495100 0.0 1036182
24 января, вс
вс2423:00−30ююв3595100 0.0 1035229
02:00−29юв3598100 0.1 1034230
05:00−29вюв3598100 0.4 1034228
08:00−28вюв2597100 0.2 1034224
11:00−28вюв2497100 0.3 1035236
14:00−26вюв3596100 0.0 1036306
17:00−26вюв3697100 0.1 1036312
20:00−25юв4997100 0.4 1036331
25 января, пн
пн2523:00−24юв4897100 0.8 1034353
02:00−23юв4897100 0.7 1033371
05:00−23юв3698100 1.3 1032331
08:00−22юв3598100 0.7 1032273
11:00−21вюв2497100 1.2 1032239
14:00−19вюв2395100 0.3 1032271
17:00−18вюв2397100 0.4 1032210
20:00−19юв239899 0.2 1033134
26 января, вт
вт2623:00−18юв239799 0.7 1033136
02:00−17юв2497100 0.4 1032149
05:00−16юв2497100 0.8 1032126
08:00−13ююв239797 0.3 103186
11:00−7ю229798 0.6 103174
14:00−1юз259490 0.1 1030433
17:00−1зюз369394 0.2 1030334
20:00−3зюз3793100 0.0 1030409